Hourly Weather Russas

Today, 20 April, Tuesday

Time Temperature Precipitation Wind Pressure Humidity
00:00 +25°C° 0 mm 1 mps 756 mmHg 94%
01:00 +25°C° 0 mm 1 mps 756 mmHg 94%
02:00 +25°C° 0 mm 1 mps 756 mmHg 94%
03:00 +23°C° 0 mm 0 mps 755 mmHg 95%
04:00 +23°C° 0 mm 0 mps 756 mmHg 94%
05:00 +23°C° 0 mm 0 mps 756 mmHg 94%
06:00 +23°C° 0 mm 0 mps 756 mmHg 93%
07:00 +25°C° 0 mm 0 mps 757 mmHg 84%
08:00 +29°C° 0 mm 1 mps 757 mmHg 75%
09:00 +31°C° 0 mm 1 mps 757 mmHg 65%
10:00 +32°C° 0.1 mm 1 mps 757 mmHg 60%
11:00 +33°C° 0.1 mm 1 mps 756 mmHg 54%
12:00 +35°C° 0.1 mm 1 mps 755 mmHg 48%
13:00 +35°C° 0 mm 2 mps 755 mmHg 51%
14:00 +34°C° 0 mm 2 mps 754 mmHg 53%
15:00 +34°C° 0 mm 3 mps 754 mmHg 56%
16:00 +31°C° 0 mm 3 mps 754 mmHg 63%
17:00 +30°C° 0 mm 3 mps 755 mmHg 69%
18:00 +28°C° 0 mm 3 mps 755 mmHg 76%
19:00 +27°C° 0 mm 2 mps 756 mmHg 78%
20:00 +27°C° 0 mm 2 mps 756 mmHg 81%
21:00 +26°C° 0 mm 2 mps 757 mmHg 83%
22:00 +26°C° 0 mm 2 mps 757 mmHg 85%
23:00 +25°C° 0 mm 2 mps 757 mmHg 86%

Tomorrow, 21 April, Wednesday

Time Temperature Precipitation Wind Pressure Humidity
00:00 +25°C° 0 mm 1 mps 756 mmHg 88%
01:00 +25°C° 0.1 mm 1 mps 756 mmHg 90%
02:00 +25°C° 0.1 mm 1 mps 756 mmHg 92%
03:00 +24°C° 0.1 mm 1 mps 756 mmHg 95%
04:00 +25°C° 0.3 mm 1 mps 756 mmHg 95%
05:00 +25°C° 0.3 mm 1 mps 756 mmHg 94%
06:00 +23°C° 0.3 mm 0 mps 757 mmHg 94%
07:00 +27°C° 0 mm 1 mps 757 mmHg 85%
08:00 +29°C° 0 mm 1 mps 757 mmHg 76%
09:00 +31°C° 0 mm 1 mps 757 mmHg 67%
10:00 +32°C° 0 mm 1 mps 757 mmHg 59%
11:00 +34°C° 0 mm 1 mps 756 mmHg 52%
12:00 +36°C° 0 mm 2 mps 755 mmHg 44%
13:00 +35°C° 0 mm 2 mps 755 mmHg 47%
14:00 +35°C° 0 mm 3 mps 754 mmHg 51%
15:00 +34°C° 0 mm 4 mps 754 mmHg 54%
16:00 +31°C° 0 mm 3 mps 754 mmHg 62%
17:00 +30°C° 0 mm 3 mps 755 mmHg 70%
18:00 +28°C° 0 mm 3 mps 755 mmHg 78%
19:00 +27°C° 0 mm 2 mps 756 mmHg 81%
20:00 +26°C° 0 mm 2 mps 756 mmHg 85%
21:00 +26°C° 0 mm 1 mps 757 mmHg 88%
22:00 +25°C° 0.3 mm 1 mps 757 mmHg 90%
23:00 +25°C° 0.3 mm 1 mps 757 mmHg 92%

Day after tomorrow, 22 April, Thursday

Time Temperature Precipitation Wind Pressure Humidity
00:00 +25°C° 0.3 mm 1 mps 757 mmHg 94%
01:00 +25°C° 0.6 mm 1 mps 756 mmHg 94%
02:00 +23°C° 0.6 mm 0 mps 756 mmHg 95%
03:00 +23°C° 0.6 mm 0 mps 756 mmHg 95%
04:00 +23°C° 0 mm 0 mps 756 mmHg 95%
05:00 +23°C° 0 mm 0 mps 756 mmHg 95%
06:00 +23°C° 0 mm 0 mps 757 mmHg 94%
07:00 +27°C° 0.1 mm 1 mps 757 mmHg 86%
08:00 +29°C° 0.1 mm 1 mps 757 mmHg 77%
09:00 +31°C° 0.1 mm 1 mps 757 mmHg 68%
10:00 +32°C° 0.1 mm 2 mps 757 mmHg 62%
11:00 +34°C° 0.1 mm 2 mps 756 mmHg 57%
12:00 +35°C° 0.1 mm 3 mps 755 mmHg 51%
13:00 +35°C° 0.2 mm 3 mps 755 mmHg 53%
14:00 +34°C° 0.2 mm 3 mps 754 mmHg 55%
15:00 +34°C° 0.2 mm 3 mps 754 mmHg 58%
16:00 +31°C° 0.4 mm 3 mps 754 mmHg 67%
17:00 +29°C° 0.4 mm 3 mps 755 mmHg 76%
18:00 +27°C° 0.4 mm 3 mps 755 mmHg 85%
19:00 +27°C° 0.2 mm 2 mps 756 mmHg 87%
20:00 +27°C° 0.2 mm 2 mps 756 mmHg 89%
21:00 +26°C° 0.2 mm 1 mps 757 mmHg 90%
22:00 +26°C° 1.3 mm 1 mps 756 mmHg 92%
23:00 +26°C° 1.3 mm 1 mps 756 mmHg 94%

23 April, Friday

Time Temperature Precipitation Wind Pressure Humidity
00:00 +25°C° 1.3 mm 1 mps 756 mmHg 96%
01:00 +25°C° 2.4 mm 1 mps 756 mmHg 96%
02:00 +25°C° 2.4 mm 1 mps 756 mmHg 97%
03:00 +25°C° 2.4 mm 1 mps 755 mmHg 97%
04:00 +25°C° 1.9 mm 1 mps 756 mmHg 97%
05:00 +25°C° 1.9 mm 1 mps 756 mmHg 96%
06:00 +25°C° 1.9 mm 1 mps 757 mmHg 96%
07:00 +26°C° 0.7 mm 2 mps 757 mmHg 90%
08:00 +28°C° 0.7 mm 2 mps 757 mmHg 85%
09:00 +29°C° 0.7 mm 3 mps 757 mmHg 80%
10:00 +31°C° 0.6 mm 3 mps 757 mmHg 72%
11:00 +32°C° 0.6 mm 2 mps 756 mmHg 64%
12:00 +34°C° 0.6 mm 2 mps 755 mmHg 56%
13:00 +34°C° 0.2 mm 3 mps 755 mmHg 60%
14:00 +33°C° 0.2 mm 3 mps 754 mmHg 63%
15:00 +31°C° 0.2 mm 3 mps 754 mmHg 67%
16:00 +30°C° 0.1 mm 3 mps 754 mmHg 71%
17:00 +29°C° 0.1 mm 3 mps 754 mmHg 76%
18:00 +28°C° 0.1 mm 3 mps 755 mmHg 80%
19:00 +27°C° 0 mm 3 mps 755 mmHg 82%
20:00 +27°C° 0 mm 3 mps 755 mmHg 84%
21:00 +27°C° 0 mm 3 mps 756 mmHg 85%
22:00 +27°C° 0 mm 3 mps 756 mmHg 85%
23:00 +27°C° 0 mm 2 mps 756 mmHg 84%

24 April, Saturday

Time Temperature Precipitation Wind Pressure Humidity
00:00 +26°C° 0 mm 2 mps 756 mmHg 84%
01:00 +26°C° 0 mm 2 mps 755 mmHg 86%
02:00 +26°C° 0 mm 2 mps 755 mmHg 87%
03:00 +25°C° 0 mm 2 mps 754 mmHg 89%
04:00 +25°C° 0 mm 2 mps 755 mmHg 89%
05:00 +25°C° 0 mm 1 mps 755 mmHg 90%
06:00 +25°C° 0 mm 1 mps 756 mmHg 91%
07:00 +27°C° 0.2 mm 2 mps 756 mmHg 82%
08:00 +29°C° 0.2 mm 3 mps 756 mmHg 73%
09:00 +31°C° 0.2 mm 3 mps 757 mmHg 65%
10:00 +30°C° 0.9 mm 3 mps 756 mmHg 70%
11:00 +30°C° 0.9 mm 3 mps 756 mmHg 76%
12:00 +29°C° 0.9 mm 3 mps 756 mmHg 81%
13:00 +29°C° 0.5 mm 2 mps 755 mmHg 81%
14:00 +29°C° 0.5 mm 2 mps 755 mmHg 80%
15:00 +29°C° 0.5 mm 2 mps 754 mmHg 80%
16:00 +28°C° 1.5 mm 2 mps 755 mmHg 84%
17:00 +27°C° 1.5 mm 2 mps 755 mmHg 88%
18:00 +26°C° 1.5 mm 1 mps 755 mmHg 92%
19:00 +26°C° 1.8 mm 1 mps 756 mmHg 94%
20:00 +26°C° 1.8 mm 1 mps 756 mmHg 95%
21:00 +26°C° 1.8 mm 1 mps 756 mmHg 96%
22:00 +26°C° 1 mm 1 mps 756 mmHg 95%
23:00 +26°C° 1 mm 1 mps 756 mmHg 95%

25 April, Sunday

Time Temperature Precipitation Wind Pressure Humidity
00:00 +26°C° 1 mm 1 mps 756 mmHg 95%
01:00 +25°C° 0.3 mm 1 mps 756 mmHg 95%
02:00 +25°C° 0.3 mm 1 mps 755 mmHg 96%
03:00 +25°C° 0.3 mm 1 mps 755 mmHg 96%
04:00 +25°C° 0.2 mm 1 mps 755 mmHg 96%
05:00 +25°C° 0.2 mm 1 mps 756 mmHg 96%
06:00 +25°C° 0.2 mm 1 mps 756 mmHg 97%
07:00 +27°C° 0 mm 2 mps 756 mmHg 89%
08:00 +28°C° 0 mm 2 mps 757 mmHg 81%
09:00 +30°C° 0 mm 3 mps 757 mmHg 73%
10:00 +31°C° 0.3 mm 3 mps 756 mmHg 70%
11:00 +31°C° 0.3 mm 2 mps 756 mmHg 68%
12:00 +32°C° 0.3 mm 2 mps 755 mmHg 65%
13:00 +32°C° 0.5 mm 2 mps 755 mmHg 66%
14:00 +32°C° 0.5 mm 2 mps 754 mmHg 67%
15:00 +32°C° 0.5 mm 1 mps 754 mmHg 68%
16:00 +30°C° 0.5 mm 1 mps 754 mmHg 75%
17:00 +28°C° 0.5 mm 2 mps 754 mmHg 83%
18:00 +27°C° 0.5 mm 2 mps 755 mmHg 91%
19:00 +26°C° 0.3 mm 2 mps 755 mmHg 93%
20:00 +26°C° 0.3 mm 2 mps 756 mmHg 94%
21:00 +25°C° 0.3 mm 2 mps 756 mmHg 95%
22:00 +25°C° 0.1 mm 2 mps 756 mmHg 96%
23:00 +25°C° 0.1 mm 2 mps 756 mmHg 96%
Show more